Probability
0 0 0 0 0 0 0 0 0 0 0 0 0 0 0 0 0 0 0 0 0 0 0 0 0 0 0 0 0 0 0 0 0 0 0 0 0 0 0 0 0 0 0 0
0 0 0 0 0 0 0 0 0 0 0 0 0 0 0 0 0 0 0 0 0 0 0 0 0 0 0 0 0 0 0 0 0 0 0 0 0 0 0 0 0 0 0 0
0 0 0 0 0 0 0 0 0 0 0 0 0 0 0 0 0 0 0 0 0 0 0 0 0 0 0 0 0 0 0 0 0 0 0 0 0 0 0 0 0 0 0 0
0 0 0 0 0 0 0 0 0 0 0 0 0 0 0 0 0 0 0 0 0 0 0 0 0 0 0 0 0 0 0 0 0 0 0 0 0 0 0 0 0 0 0 0
0 0 0 0 0 0 0 0 0 0 0 0 0 0 0 0 0 0 0 0 0 0 0 0 0 0 0 0 0 0 0 0 0 0 0 0 0 0 0 0 0 0 0 0
0 0 0 0 0 0 0 0 0 0 0 0 0 0 0 0 0 0 0 0 0 0 0 0 0 0 0 0 0 0 0 0 0 0 0 0 0 0 0 0 0 0 0 0
0 0 0 0 0 0 0 0 0 0 0 0 0 0 0 0 0 0 0 0 0 0 0 0 0 0 0 0 0 0 0 0 0 0 0 0 0 0 0 0 0 0 0 0
0 0 0 0 0 0 0 0 0 0 0 0 0 0 0 0 0 0 0 0 0 0 0 0 0 0 0 0 0 0 0 0 0 0 0 0 0 0 0 0 0 0 0 0
0 0 0 0 0 0 0 0 0 0 0 0 0 0 0 0 0 0 0 0 0 0 0 0 0 0 0 0 0 0 0 0 0 0 0 0 0 0 0 0 0 0 0 0
0 0 0 0 0 0 0 0 0 0 0 0 0 0 0 0 0 0 0 0 0 0 0 0 0 0 0 0 0 0 0 0 0 0 0 0 0 0 0 0 0 0 0 0
0 0 0 0 0 0 0 0 0 0 0 0 0 0 0 0 0 0 0 0 0 0 0 0 0 0 0 0 0 0 0 0 0 0 0 0 0 0 0 0 0 0 0 0
0 0 0 0 0 0 0 0 0 0 0 0 0 0 0 0 0 0 0 0 0 0 0 0 0 0 0 0 0 0 0 0 0 0 0 0 0 0 0 0 0 0 0 0
0 0 0 0 0 0 0 0 0 0 0 0 0 0 0 0 0 0 0 0 0 0 0 0 0 0 0 0 0 0 0 0 0 0 0 0 0 0 0 0 0 0 0 0
0 0 0 0 0 0 0 0 0 0 0 0 0 0 0 0 0 0 0 0 0 0 0 0 0 0 0 0 0 0 0 0 0 0 0 0 0 0 0 0 0 0 0 0
0 0 0 0 0 0 0 0 0 0 0 0 0 0 0 0 0 0 0 0 0 0 0 0 0 0 0 0 0 0 0 0 0 0 0 0 0 0 0 0 0 0 0 0
0 0 0 0 0 0 0 0 0 0 0 0 0 0 0 0 0 0 0 0 0 0 0 0 0 0 0 0 0 0 0 0 0 0 0 0 0 0 0 0 0 0 0 0
0 0 0 0 0 0 0 0 0 0 0 0 0 0 0 0 0 0 0 0 0 0 0 0 0 0 0 0 0 0 0 0 0 0 0 0 0 0 0 0 0 0 0 0
0 0 0 0 0 0 0 0 0 0 0 0 0 0 0 0 0 0 0 0 0 0 0 0 0 0 0 0 0 0 0 0 0 0 0 0 0 0 0 0 0 0 0 0
0 0 0 0 0 0 0 0 0 0 0 0 0 0 0 0 0 0 0 0 0 0 0 0 0 0 0 0 0 0 0 0 0 0 0 0 0 0 0 0 0 0 0 0
0 0 0 0 0 0 0 0 0 0 0 0 0 0 0 0 0 0 0 0 0 0 0 0 0 0 0 0 0 0 0 0 0 0 0 0 0 0 0 0 0 0 0 0
0 0 0 0 0 0 0 0 0 0 0 0 0 0 0 0 0 0 0 0 0 0 0 0 0 0 0 0 0 0 0 0 0 0 0 0 0 0 0 0 0 0 0 0
0 0 0 0 0 0 0 0 0 0 0 0 0 0 0 0 0 0 0 0 0 0 0 0 0 0 0 0 0 0 0 0 0 0 0 0 0 0 0 0 0 0 0 0
0 0 0 0 0 0 0 0 0 0 0 0 0 0 0 0 0 0 0 0 0 0 0 0 0 0 0 0 0 0 0 0 0 0 0 0 0 0 0 0 0 0 0 0
0 0 0 0 0 0 0 0 0 0 0 0 0 0 0 0 0 0 0 0 0 0 0 0 0 0 0 0 0 0 0 0 0 0 0 0 0 0 0 0 0 0 0 0
0 0 0 0 0 0 0 0 0 0 0 0 0 0 0 0 0 0 0 0 0 0 0 0 0 0 0 0 0 0 0 0 0 0 0 0 0 0 0 0 0 0 0 0
0 0 0 0 0 0 0 0 0 0 0 0 0 0 0 0 0 0 0 0 0 0 0 0 0 0 0 0 0 0 0 0 0 0 0 0 0 0 0 0 0 0 0 0
Height
5692 5694 5695 5696 5696 5697 5698 5699 5700 5702 5702 5703 5704 5706 5708 5708 5709 5711 5712 5713 5715 5717 5718 5719 5720 5721 5722 5723 5724 5725 5726 5727 5729 5730 5731 5732 5732 5733 5733 5733 5734 5734 5735 5735
5685 5687 5688 5687 5688 5689 5690 5691 5692 5694 5694 5695 5696 5698 5699 5700 5701 5702 5703 5705 5706 5707 5708 5710 5710 5711 5712 5713 5714 5715 5716 5717 5719 5720 5721 5722 5722 5723 5723 5723 5723 5724 5724 5725
5678 5681 5680 5680 5680 5681 5682 5684 5685 5685 5686 5686 5688 5690 5691 5692 5692 5694 5694 5695 5697 5698 5699 5700 5701 5702 5703 5703 5704 5705 5706 5707 5708 5709 5710 5711 5711 5712 5712 5713 5713 5713 5713 5713
5670 5671 5672 5672 5673 5674 5675 5676 5677 5677 5677 5678 5680 5680 5684 5684 5684 5685 5686 5687 5688 5689 5689 5690 5691 5692 5692 5693 5694 5695 5696 5696 5697 5698 5699 5700 5700 5701 5701 5702 5702 5702 5702 5702
5663 5664 5664 5665 5666 5666 5667 5668 5669 5669 5669 5670 5671 5671 5675 5675 5676 5677 5678 5678 5678 5679 5680 5680 5681 5681 5682 5683 5683 5684 5685 5686 5687 5687 5688 5689 5689 5689 5690 5690 5690 5690 5690 5690
5656 5657 5657 5658 5659 5659 5660 5660 5660 5660 5661 5662 5664 5664 5666 5668 5668 5669 5669 5669 5669 5670 5670 5671 5671 5672 5672 5673 5673 5674 5675 5675 5676 5676 5677 5677 5678 5678 5678 5678 5679 5678 5679 5678
5649 5650 5650 5651 5651 5652 5653 5654 5653 5653 5653 5655 5656 5655 5658 5660 5660 5660 5660 5660 5660 5661 5661 5662 5662 5662 5662 5663 5663 5664 5664 5665 5665 5665 5665 5666 5666 5667 5667 5667 5667 5667 5667 5666
5642 5643 5644 5644 5645 5646 5646 5647 5648 5647 5647 5648 5648 5648 5651 5652 5652 5652 5652 5652 5652 5652 5653 5653 5653 5653 5653 5653 5654 5654 5654 5654 5654 5654 5654 5655 5655 5655 5655 5655 5655 5655 5655 5654
5635 5637 5638 5638 5638 5639 5639 5640 5641 5641 5640 5640 5641 5642 5644 5644 5644 5644 5645 5644 5644 5644 5644 5645 5645 5645 5644 5644 5644 5644 5644 5644 5644 5644 5644 5644 5643 5643 5643 5643 5643 5643 5643 5642
5629 5630 5631 5631 5632 5632 5633 5634 5634 5633 5633 5633 5634 5635 5637 5637 5637 5637 5637 5637 5637 5637 5636 5636 5636 5636 5636 5635 5635 5635 5635 5634 5634 5634 5633 5633 5632 5632 5632 5632 5631 5631 5630 5630
5622 5623 5624 5624 5625 5626 5627 5627 5627 5627 5627 5627 5626 5631 5630 5630 5630 5630 5630 5629 5629 5629 5629 5628 5628 5627 5627 5626 5626 5625 5625 5624 5624 5624 5623 5622 5622 5621 5621 5620 5620 5619 5619 5618
5615 5615 5616 5618 5618 5618 5619 5620 5620 5621 5620 5620 5620 5625 5623 5622 5622 5622 5622 5621 5621 5621 5620 5620 5620 5619 5618 5617 5617 5616 5615 5615 5614 5614 5613 5612 5611 5611 5610 5610 5609 5608 5607 5606
5608 5609 5609 5610 5613 5612 5612 5612 5613 5613 5613 5612 5613 5618 5615 5615 5614 5614 5614 5613 5613 5613 5612 5612 5611 5610 5609 5608 5607 5606 5606 5605 5604 5604 5603 5602 5601 5601 5600 5599 5598 5597 5596 5595
5601 5602 5603 5604 5604 5604 5605 5606 5605 5605 5605 5605 5607 5608 5608 5606 5606 5606 5606 5605 5605 5605 5604 5603 5602 5602 5600 5599 5598 5597 5596 5595 5595 5594 5593 5593 5591 5590 5590 5589 5588 5587 5585 5584
5594 5594 5595 5596 5596 5596 5597 5597 5597 5597 5598 5598 5600 5599 5600 5598 5598 5598 5598 5597 5597 5596 5596 5595 5594 5593 5591 5590 5588 5587 5586 5586 5585 5585 5584 5583 5582 5581 5579 5578 5577 5576 5575 5573
5586 5587 5588 5588 5588 5588 5588 5589 5589 5589 5590 5590 5590 5591 5592 5590 5590 5590 5589 5589 5588 5588 5587 5586 5585 5584 5582 5581 5579 5578 5577 5577 5576 5575 5574 5573 5572 5571 5570 5568 5567 5565 5564 5562
5579 5579 5579 5580 5580 5579 5579 5582 5581 5582 5582 5582 5581 5584 5583 5582 5582 5581 5581 5581 5580 5579 5578 5577 5576 5574 5573 5572 5571 5569 5568 5567 5567 5566 5565 5564 5563 5561 5560 5558 5557 5555 5553 5551
5571 5571 5570 5571 5572 5571 5576 5574 5574 5573 5574 5574 5574 5574 5574 5574 5573 5573 5573 5572 5571 5570 5569 5568 5567 5566 5564 5563 5562 5561 5560 5559 5558 5557 5556 5554 5553 5552 5550 5549 5547 5545 5544 5542
5563 5562 5562 5562 5561 5562 5566 5566 5566 5565 5566 5566 5566 5566 5566 5565 5564 5565 5564 5563 5563 5562 5561 5559 5558 5557 5556 5555 5554 5553 5551 5550 5549 5548 5546 5545 5544 5542 5541 5540 5538 5536 5534 5532
5555 5554 5555 5554 5553 5554 5559 5559 5557 5557 5558 5559 5558 5558 5558 5557 5557 5558 5556 5555 5554 5553 5552 5551 5550 5549 5548 5547 5546 5544 5543 5542 5540 5539 5537 5536 5535 5533 5532 5531 5529 5527 5525 5523
5547 5547 5547 5546 5545 5547 5550 5550 5549 5550 5551 5550 5549 5549 5549 5549 5549 5550 5548 5546 5545 5544 5543 5542 5541 5540 5539 5538 5537 5536 5535 5533 5532 5530 5529 5528 5526 5525 5523 5521 5520 5518 5517 5515
5539 5539 5539 5539 5539 5543 5542 5541 5542 5542 5541 5541 5541 5541 5541 5541 5540 5540 5539 5538 5537 5536 5535 5534 5533 5532 5531 5530 5529 5528 5527 5526 5524 5523 5521 5520 5518 5516 5515 5513 5512 5510 5509 5507
5532 5533 5532 5533 5535 5535 5534 5533 5533 5533 5533 5533 5533 5533 5533 5532 5532 5531 5530 5529 5528 5527 5527 5526 5525 5524 5523 5522 5521 5520 5519 5518 5517 5515 5514 5512 5510 5509 5507 5506 5504 5503 5501 5499
5525 5525 5525 5525 5526 5526 5525 5525 5525 5525 5525 5525 5525 5525 5524 5524 5523 5523 5522 5521 5520 5519 5519 5518 5517 5516 5515 5515 5514 5513 5512 5511 5510 5508 5507 5505 5503 5502 5500 5499 5497 5495 5494 5492
5519 5517 5517 5517 5518 5518 5518 5517 5517 5517 5517 5517 5517 5517 5517 5516 5515 5515 5514 5513 5512 5512 5511 5510 5510 5509 5508 5508 5507 5506 5505 5504 5503 5502 5500 5499 5497 5496 5494 5492 5490 5489 5487 5484
5512 5511 5510 5510 5511 5510 5511 5510 5509 5509 5510 5510 5509 5509 5509 5508 5507 5507 5506 5506 5505 5504 5503 5503 5502 5502 5501 5501 5500 5500 5499 5498 5497 5496 5494 5493 5492 5490 5488 5487 5485 5483 5481 5479
Wind_Speed
27 28 28 28 28 30 30 31 31 32 32 33 34 34 34 34 34 34 35 35 36 36 36 36 38 39 39 39 40 41 41 41 42 42 43 43 42 42 42 43 44 45 45 45
27 28 27 28 29 30 30 31 31 32 32 33 34 34 35 35 34 34 34 35 36 37 37 37 37 38 39 40 40 41 41 42 43 43 43 43 43 44 44 45 46 46 47 47
27 27 27 28 28 29 30 30 30 31 32 33 34 35 35 35 35 35 35 36 36 37 37 38 39 39 40 40 41 42 42 43 43 44 45 45 45 45 45 46 46 47 48 48
28 27 27 27 27 28 29 30 30 31 32 33 34 34 33 34 35 35 35 36 37 37 38 38 39 39 40 40 41 42 42 43 43 44 45 45 45 46 46 47 47 48 48 49
27 27 27 27 26 27 28 28 30 30 31 32 33 34 32 32 33 34 35 35 36 36 37 37 37 38 39 39 40 41 41 42 43 43 44 45 46 46 47 47 47 47 47 48
26 26 26 26 26 27 27 28 29 30 31 32 31 33 33 31 32 32 33 34 35 35 35 35 35 36 37 37 38 39 40 41 42 43 44 44 45 45 46 47 47 47 47 47
25 25 25 25 26 26 26 26 28 29 30 30 29 31 31 29 30 31 31 31 32 33 33 34 34 35 35 36 36 37 38 40 41 43 44 44 44 45 45 45 46 47 47 47
24 24 24 25 24 24 24 25 26 27 28 28 28 28 27 26 27 28 28 29 29 30 31 32 32 33 33 34 35 36 37 38 40 41 42 43 43 44 45 45 46 46 46 46
24 24 23 23 23 23 24 25 25 27 27 27 27 27 26 26 25 26 26 27 27 28 29 30 31 31 32 32 33 34 36 37 38 39 40 41 42 43 44 44 45 45 45 45
24 25 24 23 23 24 24 24 25 26 28 29 28 27 26 25 25 25 25 26 26 26 27 29 29 30 31 32 33 34 35 36 37 37 38 39 40 41 41 42 43 43 44 45
23 24 24 24 24 24 25 25 26 27 28 29 29 27 25 24 24 24 25 25 26 26 27 28 29 30 31 32 32 33 34 35 35 36 36 37 37 38 38 39 40 41 42 43
23 24 24 24 24 24 25 26 26 27 27 28 29 27 26 26 26 26 26 26 26 27 27 28 29 30 31 31 32 33 34 34 35 35 35 35 35 36 36 37 37 38 39 40
22 24 24 24 24 25 25 25 26 27 28 28 28 27 27 27 27 27 27 27 27 27 27 28 29 30 30 31 32 33 34 34 34 34 34 34 35 36 36 36 37 37 38 39
23 24 24 24 24 25 25 25 26 27 28 29 28 27 27 28 27 27 27 28 27 28 28 29 30 30 30 31 32 32 32 33 33 32 33 33 34 35 35 36 37 37 38 38
24 24 24 24 24 25 26 26 26 27 28 29 27 27 26 27 27 28 28 28 29 29 30 30 30 30 30 30 31 31 32 32 32 32 32 33 33 33 34 35 36 37 37 38
26 25 25 25 26 26 27 26 27 28 28 28 28 27 26 26 27 27 28 28 29 30 30 30 30 30 30 30 30 31 31 31 31 32 32 32 33 33 33 34 35 36 36 37
27 27 27 28 27 27 28 26 27 27 27 28 28 27 26 27 27 27 27 28 28 29 29 29 29 30 30 30 30 30 30 30 31 31 32 32 33 33 33 33 34 34 34 34
26 26 27 28 28 28 26 25 26 26 26 26 26 26 26 26 26 27 27 28 29 29 28 28 29 29 29 29 29 29 29 30 30 30 31 32 32 32 32 32 32 32 33 33
25 25 25 26 27 26 25 25 25 26 25 26 26 26 26 26 26 27 27 28 28 28 28 28 28 28 27 27 27 28 28 29 29 29 29 29 30 30 30 30 30 31 31 31
24 24 24 24 25 25 24 24 25 26 26 26 26 26 26 26 27 26 27 28 28 27 27 27 27 27 27 26 27 27 28 28 28 28 28 27 28 28 29 30 30 30 29 29
23 24 24 24 25 24 23 23 24 25 25 25 26 26 27 27 27 26 27 27 27 27 26 26 26 26 27 27 26 26 26 26 26 26 26 26 26 27 28 28 28 28 28 28
22 24 24 24 25 23 23 24 24 24 25 25 26 27 27 27 27 26 26 26 26 26 26 27 27 27 26 26 26 25 25 25 24 25 25 25 25 26 26 26 26 27 27 27
22 23 23 24 23 23 23 24 24 24 24 25 26 26 27 27 26 26 25 25 25 25 25 26 26 25 25 25 24 24 24 23 23 23 23 23 24 24 24 24 24 25 25 25
22 22 23 24 24 24 24 24 25 25 25 25 25 25 25 25 25 24 24 25 24 24 24 24 23 23 23 23 23 22 22 22 22 22 22 22 21 21 21 22 22 23 23 24
21 23 24 24 24 25 25 25 26 26 25 24 24 24 24 24 24 24 23 23 24 23 23 22 22 22 21 21 21 21 21 21 20 20 20 20 20 20 20 20 20 21 21 21
20 21 22 22 22 23 22 24 26 26 25 24 23 23 23 24 23 22 22 21 21 21 21 21 21 20 20 20 20 20 20 20 19 19 18 18 18 18 18 19 19 19 19 19
Wind_Direction
254 254 255 257 257 257 257 256 255 255 254 253 252 251 251 252 253 254 254 254 255 255 255 256 256 256 256 256 256 256 255 256 256 258 259 260 261 262 262 262 263 264 266 266
255 256 256 256 256 256 256 255 255 254 254 253 251 251 251 252 254 255 257 257 257 257 257 257 258 257 257 257 257 257 256 256 257 259 260 261 261 261 262 263 264 264 265 266
257 257 256 255 255 255 255 255 256 256 254 254 254 253 253 254 256 257 258 258 258 259 259 259 258 258 258 258 257 257 257 257 258 259 259 261 261 263 263 264 265 266 266 266
256 256 256 257 256 256 256 256 256 257 257 257 258 257 254 256 257 258 260 261 261 260 260 260 260 260 259 258 258 258 259 259 259 259 260 260 262 263 263 264 265 266 267 267
258 256 256 257 259 259 258 258 258 258 258 259 259 261 259 259 260 260 261 262 262 262 261 260 260 260 260 259 258 259 260 260 261 262 262 262 263 264 264 264 265 266 267 268
257 255 256 257 258 259 259 259 258 258 259 259 260 262 262 261 262 262 263 264 264 264 263 262 261 260 260 260 260 260 261 261 262 262 262 262 263 264 265 265 266 267 268 268
257 256 255 256 257 257 257 257 259 259 259 261 261 263 264 264 264 265 265 264 264 264 263 262 262 262 262 262 262 262 262 262 262 263 263 263 263 264 265 266 266 267 268 269
258 256 255 256 258 258 256 257 259 262 264 264 264 265 265 266 267 267 266 265 264 263 263 263 263 263 264 264 264 265 264 264 264 265 265 265 265 265 266 266 267 268 268 269
260 258 256 257 257 257 256 256 259 262 264 267 268 267 266 267 268 269 268 267 267 265 264 264 264 264 265 266 266 266 266 266 266 266 266 266 266 266 267 268 268 269 269 269
261 260 255 255 254 255 257 258 258 260 264 268 269 269 269 268 269 270 270 269 269 268 267 266 265 265 266 267 268 268 268 268 268 269 269 268 268 269 269 269 269 269 270 270
261 261 257 255 255 256 256 257 259 261 264 267 269 270 271 271 271 272 271 270 270 269 269 268 268 268 269 270 270 271 271 270 270 270 270 269 270 270 270 270 270 270 271 271
261 260 258 256 255 257 257 258 259 261 263 265 268 270 271 272 272 272 272 271 271 272 271 271 271 271 272 272 273 273 272 272 271 270 270 270 270 271 271 271 272 272 273 273
259 258 258 257 257 258 260 261 261 262 263 265 267 271 271 273 273 272 272 272 273 272 273 273 273 273 273 274 274 274 273 272 271 271 272 272 272 272 272 272 273 274 274 274
258 259 260 260 261 261 261 261 261 262 263 266 268 270 271 272 272 272 272 273 273 272 274 275 275 275 275 276 275 274 273 273 271 271 272 274 274 273 273 273 273 274 275 276
258 261 262 261 262 263 263 262 262 263 265 267 269 270 271 271 271 271 271 272 273 274 275 275 275 275 276 276 276 274 273 272 271 272 273 275 275 275 275 275 275 276 278 278
260 262 263 262 262 263 264 263 262 263 265 267 268 269 271 272 273 273 273 273 273 275 276 275 275 275 276 276 276 275 274 273 272 272 274 274 275 276 277 277 277 278 279 280
261 262 264 264 264 265 263 263 264 264 265 267 269 270 271 272 273 273 273 274 274 275 276 276 276 276 276 276 276 275 274 274 274 274 275 275 277 277 277 278 279 279 280 281
262 264 265 265 264 264 265 263 263 264 265 267 269 270 272 273 272 273 274 275 275 276 277 277 277 276 276 276 276 275 275 274 274 275 276 276 276 277 277 278 279 280 280 281
264 265 265 266 265 264 262 263 263 264 265 266 268 269 271 273 272 273 275 276 277 277 278 277 276 276 277 277 277 276 276 275 275 277 278 277 277 276 277 278 280 281 281 282
264 264 264 265 265 265 263 263 263 264 265 266 268 269 271 273 272 274 277 278 279 277 277 277 277 276 276 278 279 279 278 277 277 277 277 278 279 277 277 279 280 282 282 283
263 263 264 265 266 267 265 263 263 264 266 266 268 270 271 272 274 274 276 278 278 277 276 276 277 277 277 277 279 280 279 278 278 278 279 280 281 279 279 279 280 281 282 284
265 264 264 263 265 269 266 264 265 266 266 267 269 270 271 273 273 274 276 277 277 276 275 276 277 278 276 276 278 279 279 278 279 280 281 281 282 282 282 281 280 282 284 284
267 266 265 263 265 266 266 266 265 267 270 269 269 271 273 273 272 273 274 276 277 276 275 277 277 276 275 275 276 277 278 278 279 281 282 283 283 284 283 282 283 284 286 287
269 267 264 263 264 265 264 265 266 267 270 271 271 271 272 272 271 272 274 275 276 276 277 276 275 274 274 275 275 277 278 278 280 281 282 282 283 286 286 286 287 287 288 289
271 269 266 264 265 265 265 266 267 267 269 269 269 270 271 272 272 271 273 275 276 276 276 275 273 273 272 274 276 278 279 279 280 281 281 282 286 289 289 289 291 292 293 293
272 272 268 266 268 268 266 265 267 267 267 268 268 269 271 272 272 272 273 275 276 276 275 273 272 271 271 273 276 278 278 278 278 280 281 284 287 288 289 291 292 295 297 298